Simultaneous Nadir Overpasses (SNOs) Predictions

Prediction of SNOs between GOES-16 and TERRA Satellite Orbit:

Table of predicted SNOs for the next 14.0 days since TLE Epoch: 6/16/2017
Index Date Time (GOES-16) GOES-16 Lat,Lon TERRA Lat,Lon Distance(km) Time Diff (sec)
1 06/16/2017 16:31:55 0.00, -89.52 0.27, -90.67 131.60 80
2 06/18/2017 16:22:25 0.01, -89.54 -0.38, -87.72 206.91 80
3 06/19/2017 04:43:48 -0.01, -89.54 -0.74, -92.91 383.53 80
4 06/21/2017 04:31:37 -0.01, -89.56 -0.08, -89.96 45.00 80
5 06/23/2017 04:16:45 -0.01, -89.58 0.52, -86.99 293.54 80
6 06/23/2017 16:38:01 0.01, -89.59 0.55, -92.16 291.57 80
7 06/25/2017 16:28:29 0.01, -89.61 -0.05, -89.19 47.34 80
8 06/27/2017 16:13:38 0.01, -89.64 -0.71, -86.24 386.54 80
9 06/28/2017 04:37:42 -0.01, -89.65 -0.40, -91.43 203.21 80
10 06/30/2017 04:22:51 -0.01, -89.68 0.27, -88.48 136.97 80




NCC Satellite Simultaneous Nadir Overpasses (SNOs) Prediction Service
